Flag for United Kingdom

Past Weather in Southend-on-Sea, England, United Kingdom — Yesterday and Last 2 Weeks

Currently: 34 °F. Clear. (Weather station: Southend Airport-On-Sea, United Kingdom). See more current weather

Past Weather in Southend-on-Sea — Graph

°F

Southend-on-Sea Temperature Yesterday

Maximum temperature yesterday: 41 °F (at 1:50 pm)
Minimum temperature yesterday: 28 °F (at 7:20 am)
Average temperature yesterday: 35 °F

High & Low Weather Summary for the Past Weeks

 TemperatureHumidityPressure
High54 °F (Jan 19, 7:20 am)100% (Jan 11, 4:50 am)30.45 "Hg (Jan 11, 4:50 am)
Low27 °F (Jan 24, 4:50 am)57% (Jan 22, 3:20 pm)28.77 "Hg (Jan 20, 11:50 pm)
Average40 °F87%29.77 "Hg
* Reported Jan 10 11:20 pm — Jan 25 11:50 pm, Southend-on-Sea. Weather by CustomWeather, © 2021

Note: Actual official high and low records may vary slightly from our data, if they occured in-between our weather recording intervals... More about our weather records

Southend-on-Sea Weather History for the Previous 24 Hours

Scroll right to see more
 ConditionsComfort  
Time TempWeatherWind HumidityBarometerVisibility
11:50 pm
Mon, Jan 25
34 °FClear.10 mph81%30.01 "Hg10 mi
11:20 pm34 °FClear.12 mph81%30.01 "Hg10 mi
10:50 pm36 °FClear.15 mph75%29.98 "Hg10 mi
10:20 pm36 °FClear.15 mph81%29.98 "Hg10 mi
4:50 pm39 °FClear.14 mph70%29.89 "Hg10 mi
4:20 pm39 °FSunny.14 mph70%29.86 "Hg10 mi
3:50 pm41 °FSunny.12 mph70%29.86 "Hg10 mi
3:20 pm41 °FSunny.12 mph70%29.86 "Hg10 mi
2:50 pm41 °FSunny.12 mph70%29.83 "Hg10 mi
2:20 pm41 °FSunny.14 mph70%29.83 "Hg10 mi
1:50 pm41 °FSunny.13 mph70%29.80 "Hg10 mi
1:20 pm39 °FSunny.12 mph70%29.80 "Hg10 mi
12:50 pm39 °FSunny.12 mph70%29.80 "Hg10 mi
11:50 am37 °FSunny.12 mph75%29.80 "Hg10 mi
11:20 am37 °FSunny.12 mph75%29.80 "Hg10 mi
10:50 am37 °FPassing clouds.9 mph75%29.77 "HgN/A
10:20 am36 °FSunny.8 mph75%29.77 "Hg10 mi
9:50 am34 °FSunny.7 mph81%29.77 "Hg10 mi
9:20 am32 °FSunny.8 mph80%29.77 "Hg10 mi
8:50 am30 °FSunny.8 mph80%29.74 "Hg10 mi
8:20 am30 °FPassing clouds.8 mph80%29.74 "HgN/A
7:50 am28 °FPassing clouds.8 mph80%29.71 "HgN/A
7:20 am28 °FPassing clouds.9 mph86%29.71 "HgN/A
6:50 am30 °FPassing clouds.9 mph80%29.68 "HgN/A
6:20 am30 °FClear.8 mph80%29.68 "Hg10 mi
5:50 am30 °FClear.7 mph86%29.65 "Hg10 mi
5:20 am30 °FClear.9 mph86%29.65 "Hg10 mi
4:50 am32 °FClear.8 mph87%29.65 "Hg10 mi
4:20 am32 °FClear.9 mph87%29.62 "Hg10 mi
3:50 am32 °FClear.8 mph87%29.62 "Hg10 mi
3:20 am32 °FClear.9 mph93%29.59 "Hg10 mi
2:50 am34 °FClear.12 mph87%29.59 "Hg10 mi
2:20 am34 °FPassing clouds.12 mph87%29.56 "HgN/A
1:50 am34 °FPassing clouds.12 mph87%29.53 "HgN/A
1:20 am34 °FPassing clouds.9 mph87%29.50 "HgN/A
12:20 am36 °FPassing clouds.12 mph87%29.50 "HgN/A
Weather by CustomWeather, © 2021

See weather overview